Track COSMOS 2441 now! 10-day predictions COSMOS 2441 is classified as:
1 33272U 08037A 25183.85721230 .00000127 00000-0 41844-4 0 9997 2 33272 98.2850 128.8372 0015734 338.7061 21.3478 14.52976802897317